This is the latest recevied weather packets stored in our database for station/object KD0RIH. If no packets are shown the sender has not sent any weather packets the latest 10 day(s).
| Time | Temp. | Humidity | Pressure | Rain* | Wind** | Luminosity | Snow |
|---|---|---|---|---|---|---|---|
| 1777571372 | 19.44° C | 41% | 1016.3 hPa | 0 mm | - | 329 W/m² | - |
| 1777571068 | 20° C | 40% | 1016.6 hPa | 0 mm | - | 1198 W/m² | - |
| 1777570764 | 18.33° C | 43% | 1016.6 hPa | 0 mm | - | 1112 W/m² | - |
| 1777570461 | 18.89° C | 42% | 1016.6 hPa | 0 mm | - | 1088 W/m² | - |
| 1777570156 | 18.89° C | 42% | 1016.7 hPa | 0 mm | - | 1097 W/m² | - |
| 1777569853 | 18.89° C | 41% | 1016.9 hPa | 0 mm | - | 533 W/m² | - |
| 1777569549 | 18.89° C | 44% | 1017 hPa | 0 mm | - | 1076 W/m² | - |
| 1777569245 | 18.89° C | 43% | 1017.2 hPa | 0 mm | - | 1035 W/m² | - |
| 1777568941 | 18.89° C | 44% | 1017.2 hPa | 0 mm | - | 1017 W/m² | - |
| 1777568638 | 18.89° C | 47% | 1017.4 hPa | 0 mm | - | 1009 W/m² | - |
| 1777568336 | 18.33° C | 42% | 1017.4 hPa | 0 mm | - | 967 W/m² | - |
| 1777568032 | 18.33° C | 43% | 1017.6 hPa | 0 mm | - | 962 W/m² | - |
| 1777567729 | 17.78° C | 48% | 1017.4 hPa | 0 mm | - | 996 W/m² | - |
| 1777567425 | 17.22° C | 51% | 1017.4 hPa | 0 mm | - | 895 W/m² | - |
| 1777567123 | 17.22° C | 51% | 1017.4 hPa | 0 mm | - | 940 W/m² | - |
| 1777566821 | 16.67° C | 53% | 1017.5 hPa | 0 mm | - | 976 W/m² | - |
| 1777566519 | 16.11° C | 55% | 1017.5 hPa | 0 mm | - | 961 W/m² | - |
| 1777566216 | 16.11° C | 53% | 1017.8 hPa | 0 mm | - | 930 W/m² | - |
| 1777565913 | 16.11° C | 54% | 1017.9 hPa | 0 mm | - | 903 W/m² | - |
| 1777565608 | 15.56° C | 56% | 1018.1 hPa | 0 mm | - | 583 W/m² | - |
| 1777565305 | 15° C | 57% | 1018.2 hPa | 0 mm | - | 743 W/m² | - |
| 1777565001 | 15° C | 58% | 1018.1 hPa | 0 mm | - | 321 W/m² | - |
| 1777564696 | 15° C | 57% | 1018.2 hPa | 0 mm | - | 299 W/m² | - |
| 1777564392 | 15° C | 57% | 1018.3 hPa | 0 mm | - | 284 W/m² | - |
| 1777564088 | 15.56° C | 55% | 1018.3 hPa | 0 mm | - | 285 W/m² | - |
* Rain latest hour (hover to see other rain measurements)
** Current wind speed in m/s (hover to see current wind gust speed)